Regional Weather Roundup
Issued by NWS

Home | Current Version | Previous Version | Text Only | Print | Product List | Glossary On
Versions: 1 2 3 4 5 6 7 8 9 10 11 12 13 14 15 16 17 18 19 20 21 22 23 24 25 26 27 28 29 30 31 32 33 34 35 36 37 38 39 40 41 42 43 44 45 46 47 48 49 50
000
ASUS43 KTOP 071008
RWRKS

WEATHER ROUNDUP FOR KANSAS
NATIONAL WEATHER SERVICE GOODLAND KS
400 AM CST SUN FEB 07 2016

NOTE:  "FAIR" INDICATES FEW OR NO CLOUDS BELOW 12,000 FEET WITH NO
SIGNIFICANT WEATHER AND/OR OBSTRUCTIONS TO VISIBILITY.

KSZ001>006-013>018-027>032-041>047-071100-
NORTHWEST KANSAS

CITY           SKY/WX    TMP DP  RH WIND       PRES   REMARKS
GOODLAND       CLOUDY    29  22  75 W10       30.11F WCI  20
HAYS           CLOUDY    37  21  52 NW12      30.08R WCI  30
HILL CITY      CLOUDY    37  28  70 NW8       30.10R
RUSSELL        CLOUDY    37  29  72 NW15      30.05S WCI  28
$$

KSZ061>065-074>080-084>089-071100-
SOUTHWEST KANSAS

CITY           SKY/WX    TMP DP  RH WIND       PRES   REMARKS
DODGE CITY     CLOUDY    32  22  66 N9        30.10F
ELKHART          N/A     35  16  46 N8          N/A
GARDEN CITY    CLOUDY    29  22  75 N10       30.11S WCI  20
GREAT BEND     CLOUDY    37  23  56 NW10      30.07S WCI  30
LIBERAL        CLOUDY    28  12  50 N7        30.11F
PRATT          CLOUDY    32  20  60 W13       30.09S WCI  22
$$

KSZ066>073-081>083-090>101-071100-
SOUTHEAST KANSAS

CITY           SKY/WX    TMP DP  RH WIND       PRES   REMARKS
CHANUTE        CLOUDY    37  27  67 SW13      30.08F WCI  29
COFFEYVILLE    CLEAR     36  27  69 S12       30.13F WCI  28
HUTCHINSON     CLOUDY    36  20  52 W7        30.06F
MEDICINE LODGE   N/A     34  20  56 S9        30.08F
NEWTON         CLOUDY    34  21  60 SW12      30.06F WCI  25
PARSONS        CLEAR     38  27  64 S10       30.12F WCI  31
WICHITA INTL   CLOUDY    34  25  69 W6        30.09R
WICHITA JABRA  CLOUDY    36  25  64 SW14      30.07R WCI  27
WICHITA MCCONL CLOUDY    35  25  68 SW7       30.08S
WINFIELD       CLEAR     34  26  72 S7        30.11F
$$

KSZ007>012-019>026-033>040-048>060-102>105-071100-
NORTHEAST KANSAS

CITY           SKY/WX    TMP DP  RH WIND       PRES   REMARKS
CONCORDIA      CLOUDY    34  27  75 W10       30.02S WCI  26
EMPORIA        PTCLDY    39  25  57 SW21G32   30.01F WCI  29
LAWRENCE       PTCLDY    39  26  59 W12       30.01S WCI  32
MANHATTAN      PTCLDY    38  25  59 W7        30.01S
MARYSVILLE     CLOUDY    34  28  80 W5        29.99S
OLATHE IND     PTCLDY    38  27  64 S18G28    29.99F WCI  28
OLATHE EXE     CLOUDY    38  26  62 SW9G17    29.99F
SALINA         CLOUDY    41  27  57 NW10      30.04S
TOPEKA BILLARD PTCLDY    42  24  49 SW7       30.00S
TOPEKA FORBES  PTCLDY    39  27  62 SW9       29.99S
$$



USA.gov is the U.S. government's official web portal to all federal, state and local government web resources and services.